Location: Vancouver
(49.2500°N, 123.1330°W)
Time: 17:45:35
(UTC-08:00)

ISS - All Passes

Search period start: 21 February 2017 00:00
Search period end: 03 March 2017 00:00
Orbit: 399 x 408 km, 51.6° (Epoch: 22 February)

Date Brightness Start Highest point End Pass type
(mag) Time Alt. Az. Time Alt. Az. Time Alt. Az.
21 Feb - 09:59:00 10° SSW 10:01:53 28° SE 10:04:47 10° E daylight
21 Feb - 11:34:51 10° WSW 11:38:09 78° NNW 11:41:27 10° ENE daylight
21 Feb - 13:11:34 10° WNW 13:14:50 54° N 13:18:05 10° E daylight
21 Feb - 14:48:07 10° WNW 14:51:25 72° SSW 14:54:41 10° ESE daylight
21 Feb - 16:25:19 10° W 16:27:26 16° SW 16:29:32 10° S daylight
22 Feb - 09:07:15 10° S 09:09:34 18° SE 09:11:54 10° E daylight
22 Feb - 10:42:20 10° WSW 10:45:38 77° SSE 10:48:56 10° ENE daylight
22 Feb - 12:18:59 10° W 12:22:14 54° N 12:25:29 10° ENE daylight
22 Feb - 13:55:36 10° WNW 13:58:55 82° NNE 14:02:12 10° ESE daylight
22 Feb - 15:32:20 10° W 15:35:08 26° SW 15:37:54 10° SSE daylight
23 Feb - 08:16:27 10° SSE 08:17:18 11° SE 08:18:10 10° ESE daylight
23 Feb - 09:49:57 10° SW 09:53:09 51° SSE 09:56:24 10° ENE daylight
23 Feb - 11:26:22 10° W 11:29:39 59° N 11:32:55 10° ENE daylight
23 Feb - 13:03:03 10° WNW 13:06:21 65° N 13:09:38 10° E daylight
23 Feb - 14:39:37 10° WNW 14:42:45 40° SSW 14:45:51 10° SE daylight
24 Feb - 08:57:44 10° SSW 09:00:44 33° SSE 09:03:45 10° E daylight
24 Feb - 10:33:46 10° W 10:37:04 72° NNW 10:40:22 10° ENE daylight
24 Feb - 12:10:29 10° WNW 12:13:45 56° N 12:17:00 10° E daylight
24 Feb - 13:47:01 10° WNW 13:50:18 63° SSW 13:53:32 10° SE daylight
24 Feb - 15:24:30 10° WSW 15:26:15 14° SW 15:27:59 10° S daylight
25 Feb - 08:05:49 10° SSW 08:08:22 21° SE 08:10:56 10° E daylight
25 Feb - 09:41:12 10° WSW 09:44:30 86° SSE 09:47:49 10° ENE daylight
25 Feb - 11:17:53 10° W 11:21:07 53° N 11:24:23 10° ENE daylight
25 Feb - 12:54:27 10° WNW 12:57:46 90° WSW 13:01:03 10° ESE daylight
25 Feb - 14:31:18 10° W 14:33:56 22° SW 14:36:32 10° SSE daylight
26 Feb - 07:14:29 10° SSE 07:16:03 13° SE 07:17:37 10° ESE daylight
26 Feb - 08:48:43 10° SW 08:51:58 59° SSE 08:55:14 10° ENE daylight
26 Feb - 10:25:14 10° W 10:28:30 57° N 10:31:46 10° ENE daylight
26 Feb - 12:01:53 10° WNW 12:05:11 69° NNE 12:08:29 10° E daylight
26 Feb - 13:38:29 10° W 13:41:31 35° SSW 13:44:34 10° SE daylight
27 Feb - 07:56:24 10° SW 07:59:29 38° SSE 08:02:35 10° E daylight
27 Feb - 09:32:34 10° W 09:35:52 67° NNW 09:39:09 10° ENE daylight
27 Feb - 11:09:17 10° WNW 11:12:33 58° N 11:15:50 10° E daylight
27 Feb - 12:45:49 10° WNW 12:49:03 55° SSW 12:52:17 10° SE daylight
27 Feb - 14:23:44 10° WSW 14:24:56 12° SW 14:26:08 10° SSW daylight
28 Feb - 07:04:20 10° SSW 07:07:03 24° SE 07:09:47 10° E daylight
28 Feb - 08:39:56 10° WSW 08:43:15 86° NNW 08:46:34 10° ENE daylight
28 Feb - 10:16:39 10° WNW 10:19:54 54° N 10:23:09 10° E daylight
28 Feb - 11:53:12 10° WNW 11:56:31 81° SSW 11:59:48 10° ESE daylight
28 Feb - 13:30:11 10° W 13:32:36 19° SW 13:35:01 10° S daylight
01 Mar - 06:12:42 10° S 06:14:41 15° SE 06:16:39 10° E visible
01 Mar - 07:47:23 10° WSW 07:50:40 68° SSE 07:53:57 10° ENE daylight
01 Mar - 09:23:58 10° W 09:27:13 55° N 09:30:29 10° ENE daylight
01 Mar - 11:00:36 10° WNW 11:03:55 75° NNE 11:07:12 10° ESE daylight
01 Mar - 12:37:14 10° W 12:40:11 30° SW 12:43:07 10° SSE daylight
02 Mar - 06:54:58 10° SW 06:58:07 44° SSE 07:01:18 10° ENE daylight
02 Mar - 08:31:16 10° W 08:34:33 63° N 08:37:50 10° ENE daylight
02 Mar - 10:07:58 10° WNW 10:11:15 61° N 10:14:31 10° E daylight
02 Mar - 11:44:30 10° WNW 11:47:42 48° SSW 11:50:53 10° SE daylight
